TimeCDT,TemperatureF,Dew PointF,Humidity,Sea Level PressureIn,VisibilityMPH,Wind Direction,Wind SpeedMPH,Gust SpeedMPH,PrecipitationIn,Events,Conditions,WindDirDegrees,DateUTC
12:52 AM,69.1,63.0,81,30.05,9.0,SE,6.9,-,N/A,,Clear,140,2013-08-19 05:52:00
1:52 AM,68.0,63.0,84,30.04,8.0,SE,8.1,-,N/A,,Clear,140,2013-08-19 06:52:00
2:52 AM,66.0,62.1,87,30.04,7.0,SSE,3.5,-,N/A,,Clear,150,2013-08-19 07:52:00
3:52 AM,66.0,62.1,87,30.02,7.0,SSE,4.6,-,N/A,,Clear,150,2013-08-19 08:52:00
4:52 AM,66.0,62.1,87,30.01,7.0,SE,4.6,-,N/A,,Scattered Clouds,140,2013-08-19 09:52:00
5:52 AM,66.0,62.1,87,30.01,6.0,SE,4.6,-,N/A,,Scattered Clouds,140,2013-08-19 10:52:00
6:52 AM,66.0,62.1,87,30.02,7.0,SSE,5.8,-,N/A,,Mostly Cloudy,150,2013-08-19 11:52:00
7:52 AM,66.9,62.1,84,30.03,7.0,SSE,6.9,-,N/A,,Scattered Clouds,160,2013-08-19 12:52:00
8:52 AM,71.1,62.1,73,30.04,9.0,SSE,8.1,-,N/A,,Clear,160,2013-08-19 13:52:00
9:52 AM,75.0,63.0,66,30.04,10.0,SSE,13.8,-,N/A,,Partly Cloudy,160,2013-08-19 14:52:00
10:52 AM,79.0,64.0,60,30.04,10.0,SSE,15.0,-,N/A,,Partly Cloudy,160,2013-08-19 15:52:00
11:52 AM,81.0,64.9,58,30.04,10.0,South,11.5,-,N/A,,Clear,170,2013-08-19 16:52:00
12:52 PM,82.9,64.9,54,30.03,10.0,South,15.0,-,N/A,,Clear,170,2013-08-19 17:52:00
1:52 PM,84.9,66.0,53,30.01,10.0,South,13.8,-,N/A,,Clear,180,2013-08-19 18:52:00
2:52 PM,86.0,66.0,51,30.00,10.0,South,13.8,21.9,N/A,,Clear,170,2013-08-19 19:52:00
3:52 PM,86.0,64.9,49,29.97,10.0,South,18.4,-,N/A,,Clear,170,2013-08-19 20:52:00
4:52 PM,86.0,64.9,49,29.96,10.0,South,17.3,-,N/A,,Clear,170,2013-08-19 21:52:00
5:52 PM,86.0,66.0,51,29.94,10.0,South,11.5,19.6,N/A,,Clear,170,2013-08-19 22:52:00
6:52 PM,84.0,64.9,53,29.94,10.0,South,12.7,-,N/A,,Clear,180,2013-08-19 23:52:00
7:52 PM,80.1,66.9,64,29.94,9.0,SSE,8.1,-,N/A,,Clear,160,2013-08-20 00:52:00
8:52 PM,77.0,66.9,71,29.94,10.0,SSE,8.1,-,N/A,,Clear,160,2013-08-20 01:52:00
9:52 PM,73.9,66.9,79,29.96,9.0,SSE,8.1,-,N/A,,Clear,150,2013-08-20 02:52:00
10:52 PM,73.9,66.0,76,29.96,10.0,SSE,8.1,-,N/A,,Clear,150,2013-08-20 03:52:00
11:52 PM,73.0,66.0,79,29.97,10.0,SSE,9.2,-,N/A,,Clear,160,2013-08-20 04:52:00